Victorville, CA

2:26 AM PST on February 21, 2018 (GMT -0800)
Southern California Logistics

Weather History for KVCV - February, 2014

Change the Weather History Date:

Wednesday, February 19, 2014

  Actual Average (KSBD) Record (KSBD)
Temperature  
Mean Temperature 56 °F -  
Max Temperature 69 °F 66 °F 78 °F (2015)
Min Temperature 44 °F 42 °F 41 °F (2018)
Degree Days  
Heating Degree Days 8    
Growing Degree Days 6 (Base 50)    
Moisture  
Dew Point 25 °F    
Average Humidity 32    
Maximum Humidity 62    
Minimum Humidity 14    
Precipitation  
Precipitation 0.00 in - - ()
Sea Level Pressure  
Sea Level Pressure 29.97 in    
Wind  
Wind Speed 12 mph (WSW)    
Max Wind Speed 28 mph    
Max Gust Speed 37 mph    
Visibility 9 miles    
Events      
Averages and records for this station are not official NWS values.
T = Trace of Precipitation, MM = Missing Value Source: NWS Daily Summary

Daily Weather History Graph

Daily Weather History Graph

Search for Another Location

Airport or City:

Trip Planner

Search our weather history database for the weather conditions in past years. The results will help you decide how hot, cold, wet, or windy it might be!

Date:

Astronomy

Feb. 19, 2014 Rise Set
Actual Time 6:30 AM PST 5:36 PM PST
Civil Twilight 6:04 AM PST 6:02 PM PST
Nautical Twilight 5:35 AM PST 6:31 PM PST
Astronomical Twilight 5:06 AM PST 7:00 PM PST
Moon 10:20 PM PST (2/19) 8:52 AM PST (2/19)
Length of Visible Light 11h 57m
Length of Day
11h 06m
Waning Gibbous, 79% of the Moon is Illuminated
Feb 19
Waning Gibbous
Feb 22
Last Quarter
Mar 1
New
Mar 8
First Quarter
Mar 16
Full

Hourly Weather History & Observations

Time (PST) Temp. Windchill Dew Point Humidity Pressure Visibility Wind Dir Wind Speed Gust Speed Precip Events Conditions
12:15 AM 51.8 °F - 19.4 °F 28% 30.00 in 10.0 mi South 5.8 mph - N/A   Unknown
12:35 AM 51.8 °F - 19.4 °F 28% 29.99 in 10.0 mi South 4.6 mph - N/A   Unknown
12:55 AM 50.0 °F - 19.4 °F 30% 29.99 in 10.0 mi South 5.8 mph - N/A   Unknown
1:15 AM 48.2 °F - 21.2 °F 34% 29.99 in 10.0 mi South 6.9 mph - N/A   Unknown
1:35 AM 46.4 °F 42.9 °F 21.2 °F 37% 29.98 in 10.0 mi South 6.9 mph - N/A   Unknown
1:55 AM 44.6 °F 40.7 °F 21.2 °F 39% 29.97 in 10.0 mi South 6.9 mph - N/A   Unknown
2:15 AM 46.4 °F 45.2 °F 26.6 °F 46% 29.97 in 10.0 mi SSW 3.5 mph - N/A   Unknown
2:35 AM 44.6 °F 40.7 °F 24.8 °F 46% 29.96 in 10.0 mi South 6.9 mph - N/A   Unknown
2:55 AM 46.4 °F 44.3 °F 24.8 °F 43% 29.96 in 10.0 mi SSW 4.6 mph - N/A   Unknown
3:15 AM 44.6 °F - 26.6 °F 49% 29.95 in 10.0 mi Calm Calm - N/A   Unknown
3:35 AM 46.4 °F 42.9 °F 26.6 °F 46% 29.94 in 10.0 mi South 6.9 mph - N/A   Unknown
3:55 AM 44.6 °F 40.2 °F 24.8 °F 46% 29.93 in 10.0 mi South 8.1 mph - N/A   Unknown
4:15 AM 46.4 °F 44.3 °F 24.8 °F 43% 29.93 in 10.0 mi South 4.6 mph - N/A   Unknown
4:35 AM 46.4 °F 44.3 °F 24.8 °F 43% 29.93 in 10.0 mi SSW 4.6 mph - N/A   Unknown
4:55 AM 44.6 °F 42.2 °F 24.8 °F 46% 29.94 in 10.0 mi SSW 4.6 mph - N/A   Unknown
5:15 AM 44.6 °F 43.1 °F 24.8 °F 46% 29.94 in 10.0 mi South 3.5 mph - N/A   Unknown
5:35 AM 46.4 °F 43.5 °F 19.4 °F 34% 29.95 in 10.0 mi West 5.8 mph - N/A   Unknown
5:55 AM 51.8 °F - 23.0 °F 33% 29.96 in 10.0 mi West 16.1 mph 21.9 mph N/A   Unknown
6:15 AM 51.8 °F - 26.6 °F 38% 29.97 in 10.0 mi West 16.1 mph - N/A   Unknown
6:35 AM 51.8 °F - 30.2 °F 44% 29.98 in 10.0 mi West 17.3 mph - N/A   Unknown
6:55 AM 51.8 °F - 30.2 °F 44% 29.99 in 10.0 mi West 20.7 mph - N/A   Unknown
7:15 AM 51.8 °F - 30.2 °F 44% 29.99 in 10.0 mi West 21.9 mph 27.6 mph N/A   Unknown
7:35 AM 51.8 °F - 28.4 °F 41% 29.99 in 10.0 mi West 20.7 mph - N/A   Unknown
7:55 AM 51.8 °F - 30.2 °F 44% 30.00 in 7.0 mi West 16.1 mph 21.9 mph N/A   Unknown
8:15 AM 53.6 °F - 30.2 °F 41% 29.98 in 7.0 mi West 17.3 mph 23.0 mph N/A   Unknown
8:35 AM 55.4 °F - 28.4 °F 36% 29.99 in 10.0 mi West 16.1 mph 20.7 mph N/A   Unknown
8:55 AM 57.2 °F - 28.4 °F 33% 30.00 in 10.0 mi West 16.1 mph 23.0 mph N/A   Unknown
9:15 AM 57.2 °F - 28.4 °F 33% 30.00 in 10.0 mi West 19.6 mph - N/A   Unknown
9:35 AM 59.0 °F - 28.4 °F 31% 29.99 in 10.0 mi West 24.2 mph 31.1 mph N/A   Unknown
9:55 AM 59.0 °F - 30.2 °F 34% 30.00 in 2.0 mi West 23.0 mph 29.9 mph N/A   Haze
10:15 AM 60.8 °F - 30.2 °F 31% 30.03 in 10.0 mi West 16.1 mph 26.5 mph N/A   Unknown
10:35 AM 62.6 °F - 28.4 °F 27% 30.01 in 10.0 mi West 19.6 mph 25.3 mph N/A   Unknown
10:55 AM 64.4 °F - 24.8 °F 22% 30.00 in 10.0 mi West 23.0 mph 29.9 mph N/A   Unknown
11:15 AM 66.2 °F - 24.8 °F 21% 29.98 in 7.0 mi West 23.0 mph 32.2 mph N/A   Unknown
11:35 AM 66.2 °F - 26.6 °F 23% 29.97 in 5.0 mi West 25.3 mph 36.8 mph N/A   Haze
11:55 AM 66.2 °F - 24.8 °F 21% 29.96 in 7.0 mi WSW 24.2 mph 32.2 mph N/A   Unknown
12:15 PM 66.2 °F - 24.8 °F 21% 29.95 in 7.0 mi West 24.2 mph 36.8 mph N/A   Unknown
12:35 PM 68.0 °F - 24.8 °F 20% 29.94 in 7.0 mi West 21.9 mph 32.2 mph N/A   Unknown
12:55 PM 68.0 °F - 21.2 °F 17% 29.93 in 4.0 mi West 27.6 mph 36.8 mph N/A   Haze
1:15 PM 68.0 °F - 24.8 °F 20% 29.92 in 4.0 mi West 27.6 mph 34.5 mph N/A   Haze
1:35 PM 68.0 °F - 21.2 °F 17% 29.92 in 5.0 mi West 25.3 mph 34.5 mph N/A   Haze
1:55 PM 69.8 °F - 24.8 °F 18% 29.91 in 5.0 mi West 24.2 mph 32.2 mph N/A   Haze
2:15 PM 68.0 °F - 23.0 °F 18% 29.92 in 5.0 mi West 24.2 mph 29.9 mph N/A   Haze
2:35 PM 69.8 °F - 21.2 °F 16% 29.91 in 10.0 mi West 20.7 mph 28.8 mph N/A   Unknown
2:55 PM 69.8 °F - 19.4 °F 15% 29.90 in 10.0 mi West 18.4 mph 31.1 mph N/A   Unknown
3:15 PM 69.8 °F - 17.6 °F 14% 29.91 in 10.0 mi West 16.1 mph 25.3 mph N/A   Unknown
3:35 PM 69.8 °F - 17.6 °F 14% 29.91 in 10.0 mi West 23.0 mph - N/A   Unknown
3:55 PM 68.0 °F - 17.6 °F 15% 29.90 in 7.0 mi West 18.4 mph 23.0 mph N/A   Unknown
4:15 PM 66.2 °F - 15.8 °F 14% 29.91 in 7.0 mi West 20.7 mph 25.3 mph N/A   Unknown
4:20 PM 66.2 °F - 17.6 °F 15% 29.91 in 7.0 mi West 17.3 mph 26.5 mph N/A   Unknown
4:35 PM 66.2 °F - 15.8 °F 14% 29.91 in 10.0 mi West 17.3 mph 25.3 mph N/A   Unknown
4:55 PM 64.4 °F - 15.8 °F 15% 29.91 in 10.0 mi West 15.0 mph 23.0 mph N/A   Unknown
5:15 PM 64.4 °F - 17.6 °F 16% 29.91 in 10.0 mi West 15.0 mph 18.4 mph N/A   Unknown
5:35 PM 62.6 °F - 17.6 °F 18% 29.93 in 10.0 mi West 13.8 mph 19.6 mph N/A   Unknown
6:15 PM 57.2 °F - 21.2 °F 25% 29.94 in 10.0 mi West 12.7 mph - N/A   Unknown
6:35 PM 57.2 °F - 21.2 °F 25% 29.95 in 7.0 mi West 13.8 mph 19.6 mph N/A   Unknown
6:55 PM 55.4 °F - 23.0 °F 29% 29.95 in 10.0 mi West 12.7 mph 20.7 mph N/A   Unknown
7:35 PM 53.6 °F - 24.8 °F 33% 29.97 in 10.0 mi West 10.4 mph - N/A   Unknown
8:20 PM 53.6 °F - 26.6 °F 35% 29.99 in 10.0 mi West 8.1 mph - N/A   Unknown
8:35 PM 53.6 °F - 26.6 °F 35% 29.99 in 10.0 mi West 11.5 mph - N/A   Unknown
8:55 PM 51.8 °F - 26.6 °F 38% 29.99 in 10.0 mi West 8.1 mph - N/A   Unknown
9:15 PM 51.8 °F - 28.4 °F 41% 30.00 in 10.0 mi West 10.4 mph - N/A   Unknown
9:35 PM 51.8 °F - 28.4 °F 41% 30.01 in 10.0 mi West 9.2 mph - N/A   Unknown
9:55 PM 51.8 °F - 28.4 °F 41% 30.01 in 10.0 mi West 12.7 mph - N/A   Unknown
10:15 PM 51.8 °F - 28.4 °F 41% 30.02 in 10.0 mi West 10.4 mph 18.4 mph N/A   Unknown
10:35 PM 51.8 °F - 28.4 °F 41% 30.03 in 10.0 mi West 10.4 mph - N/A   Unknown
11:15 PM 48.2 °F - 30.2 °F 50% 30.05 in 10.0 mi East 3.5 mph - N/A   Unknown
11:35 PM 48.2 °F - 33.8 °F 58% 30.05 in 10.0 mi West 4.6 mph - N/A   Unknown
11:55 PM 48.2 °F - 35.6 °F 62% 30.06 in 10.0 mi Calm Calm - N/A   Unknown